Weather Service Report


276 
ASUS45 KSLC 292010
RWRUT 

UTAH REGIONAL WEATHER ROUNDUP
NATIONAL WEATHER SERVICE SALT LAKE CITY UT
200 PM MDT THU SEP 29 2016

UTZ001>011-023>025-292100-

NORTHERN UTAH
  
CITY           SKY/WX    TMP DP  RH WIND       PRES   REMARKS
BRIGHAM CITY     N/A     64  55  73 N5        30.26F                  
HILL AFB       PTSUNNY   72  50  45 N14       30.25S                  
LOGAN          LGT RAIN  65  52  62 W16       30.25R                  
OGDEN          LGT RAIN  70  52  52 N12       30.24R                  
PROVO AIRPORT  PTSUNNY   77  46  33 VRB7      30.24F                  
SALT LAKE CITY PTSUNNY   77  46  33 S14G22    30.19F                  
VERNAL         CLOUDY    60  56  86 NE5       30.38F                  
WENDOVER       SUNNY    N/A N/A N/A MISG        N/A                   
HEBER CITY     MOSUNNY   73  41  31 SW14      30.27F                  
WEST JORDAN    PTSUNNY   76  46  34 SE14      30.23F                  

$$

UTZ012>022-026-027-292100-

SOUTHERN/CENTRAL UTAH
  
CITY           SKY/WX    TMP DP  RH WIND       PRES   REMARKS
BLANDING       CLOUDY    58  54  88 CALM      30.51F                  
BRYCE CANYON   PTSUNNY   58  51  78 SE14      30.45F                  
CEDAR CITY     MOSUNNY   71  46  40 SW12      30.30F                  
DELTA          PTSUNNY   77  39  25 SW14G21   30.24F                  
MILFORD        PTSUNNY   74  45  35 S22G30    30.26F                  
MOAB/CYNLANDS  CLOUDY    68  57  68 NE6       30.32F                  
PRICE          PTSUNNY   62  51  67 SE9       30.39F                  
ST GEORGE      PTCLDY    81  55  41 NE8       30.21F                  

$$

REGIONAL REPORTS     COLORADO/ARIZONA
  
CITY           SKY/WX    TMP DP  RH WIND       PRES   REMARKS
CRAIG, CO      CLOUDY    65  47  52 W20       30.42S                  
GRAND JUNCTION CLOUDY    60  58  92 W6        30.37F                  
RIFLE          CLOUDY    65  50  58 W25       30.38F                  
MONTROSE       CLOUDY    64  46  52 NW12      30.42F                  
CORTEZ         LGT RAIN  63  46  54 SW7       30.45S                  
PAGE, AZ       LGT RAIN  71  59  65 N5        30.29F                  
GRAND CANYON   CLOUDY    63  51  65 SE10      30.40F                  
KINGMAN        PTSUNNY   83  49  30 S12       30.18F                  
FLAGSTAFF      CLOUDY    56  53  90 S7        30.45F                  

$$

REGIONAL REPORTS    NEVADA/IDAHO/WYOMING
  
CITY           SKY/WX    TMP DP  RH WIND       PRES   REMARKS
LAS VEGAS, NV  MOSUNNY   86  47  25 VRB6      30.11F                  
ELY            PTSUNNY   65  43  44 E10       30.32F                  
ELKO           SUNNY     80  37  21 S12G18    30.18F                  
POCATELLO, ID  PTSUNNY   75  46  35 S20G26    30.18F                  
BURLEY         PTSUNNY   78  46  32 S15       30.12F                  
EVANSTON, WY   CLOUDY    69  39  33 SW16G22   30.34F                  
ROCK SPRINGS   CLOUDY    62  49  62 S24G33    30.36F                  

$$
  

Return to Home page


Western Regional Climate Center, wrcc@dri.edu